Location: Kanab
(37.0481°N, 112.5285°W)
Time: 12:39:14
(UTC-06:00)

X-37B - Visible Passes

Search period start: 19 October 2021 00:00
Search period end: 29 October 2021 00:00
Orbit: 385 x 389 km, 45.0° (Epoch: 17 October)

Date Brightness Start Highest point End Pass type
(mag) Time Alt. Az. Time Alt. Az. Time Alt. Az.
19 Oct 2.6 19:29:26 10° WNW 19:31:54 20° N 19:34:22 10° NE visible
19 Oct 4.0 21:06:40 10° NW 21:06:45 11° NW 21:06:45 11° NW visible
20 Oct 2.5 20:08:15 10° NW 20:10:38 19° N 20:10:57 19° NNE visible
21 Oct 2.6 19:09:41 10° NW 19:12:01 19° N 19:14:22 10° NE visible
21 Oct 3.2 20:46:29 10° NW 20:47:26 17° NW 20:47:26 17° NW visible
22 Oct 2.2 19:48:10 10° NW 19:50:45 22° N 19:51:41 19° NE visible
23 Oct 2.1 20:26:15 10° NW 20:28:17 31° NNW 20:28:17 31° NNW visible
24 Oct 1.8 19:27:59 10° NW 19:30:50 29° NNE 19:32:39 17° ENE visible
24 Oct 3.9 21:04:29 10° WNW 21:04:57 13° WNW 21:04:57 13° WNW visible
25 Oct 0.4 20:06:05 10° WNW 20:09:15 79° NNE 20:09:26 75° ENE visible
26 Oct 1.1 19:07:47 10° NW 19:10:50 44° NNE 19:13:54 10° E visible
26 Oct 3.1 20:44:40 10° W 20:46:21 21° WSW 20:46:21 21° WSW visible
27 Oct 1.3 19:46:01 10° WNW 19:49:07 51° SSW 19:51:08 19° SE visible
28 Oct 3.5 20:25:31 10° WSW 20:27:03 13° SW 20:28:28 10° SSW visible
